Time,TemperatureF,DewpointF,PressureIn,WindDirection,WindDirectionDegrees,WindSpeedMPH,WindSpeedGustMPH,Humidity,HourlyPrecipIn,Conditions,Clouds,dailyrainin,SoftwareType,DateUTC
2013-04-07 00:02:00,36.0,32.0,-100.00,NW,305,2.0,7.0,83,0.00,,,0.00,,2013-04-07 05:02:00,
2013-04-07 00:12:00,36.0,32.0,-100.00,NW,320,3.0,7.0,83,0.00,,,0.00,,2013-04-07 05:12:00,
2013-04-07 00:22:00,36.0,32.0,-100.00,NW,310,3.0,7.0,83,0.00,,,0.00,,2013-04-07 05:22:00,
2013-04-07 00:33:00,36.0,32.0,-100.00,West,280,2.0,6.0,84,0.00,,,0.00,,2013-04-07 05:33:00,
2013-04-07 00:42:00,36.0,32.0,-100.00,WNW,300,4.0,7.0,84,0.00,,,0.00,,2013-04-07 05:42:00,
2013-04-07 00:52:00,36.0,32.0,-100.00,NW,305,2.0,7.0,84,0.00,,,0.00,,2013-04-07 05:52:00,
2013-04-07 01:02:00,36.0,32.0,-100.00,NW,315,2.0,7.0,83,0.00,,,0.00,,2013-04-07 06:02:00,
2013-04-07 01:12:00,36.0,32.0,-100.00,ENE,75,2.0,7.0,83,0.00,,,0.00,,2013-04-07 06:12:00,
2013-04-07 01:22:00,36.0,32.0,-100.00,NW,305,2.0,6.0,83,0.00,,,0.00,,2013-04-07 06:22:00,
2013-04-07 01:32:00,36.0,32.0,-100.00,WNW,300,1.0,7.0,83,0.00,,,0.00,,2013-04-07 06:32:00,
2013-04-07 01:42:00,36.0,32.0,-100.00,NNW,335,3.0,5.0,83,0.00,,,0.00,,2013-04-07 06:42:00,
2013-04-07 01:52:00,36.0,32.0,-100.00,North,0,4.0,9.0,83,0.00,,,0.00,,2013-04-07 06:52:00,
2013-04-07 02:02:00,36.0,32.0,-100.00,NW,320,2.0,9.0,83,0.00,,,0.00,,2013-04-07 07:02:00,
2013-04-07 02:12:00,36.0,32.0,-100.00,NW,305,1.0,4.0,84,0.00,,,0.00,,2013-04-07 07:12:00,
2013-04-07 02:22:00,36.0,32.0,-100.00,NNW,335,1.0,4.0,85,0.00,,,0.00,,2013-04-07 07:22:00,
2013-04-07 02:32:00,35.0,32.0,-100.00,WNW,300,2.0,4.0,85,0.00,,,0.00,,2013-04-07 07:32:00,
2013-04-07 02:42:00,35.0,32.0,-100.00,WNW,295,1.0,5.0,85,0.00,,,0.00,,2013-04-07 07:42:00,
2013-04-07 02:52:00,35.0,32.0,-100.00,North,5,1.0,4.0,86,0.00,,,0.00,,2013-04-07 07:52:00,
2013-04-07 03:02:00,35.0,32.0,-100.00,WNW,300,1.0,2.0,86,0.00,,,0.00,,2013-04-07 08:02:00,
2013-04-07 03:12:00,35.0,32.0,-100.00,NW,310,2.0,6.0,86,0.00,,,0.00,,2013-04-07 08:12:00,
2013-04-07 03:22:00,35.0,32.0,-100.00,WNW,295,3.0,7.0,86,0.00,,,0.00,,2013-04-07 08:22:00,
2013-04-07 03:32:00,35.0,32.0,-100.00,NW,315,1.0,4.0,86,0.00,,,0.00,,2013-04-07 08:32:00,
2013-04-07 03:42:00,35.0,32.0,-100.00,North,5,1.0,4.0,86,0.00,,,0.00,,2013-04-07 08:42:00,
2013-04-07 03:52:00,35.0,32.0,-100.00,NW,310,2.0,6.0,86,0.00,,,0.00,,2013-04-07 08:52:00,
2013-04-07 04:02:00,35.0,32.0,-100.00,North,0,2.0,6.0,86,0.00,,,0.00,,2013-04-07 09:02:00,
2013-04-07 04:12:00,35.0,32.0,-100.00,West,275,1.0,5.0,86,0.00,,,0.00,,2013-04-07 09:12:00,
2013-04-07 04:22:00,35.0,32.0,-100.00,NE,45,1.0,6.0,86,0.00,,,0.00,,2013-04-07 09:22:00,
2013-04-07 04:33:00,35.0,32.0,-100.00,North,0,2.0,4.0,86,0.00,,,0.00,,2013-04-07 09:33:00,
2013-04-07 04:43:00,35.0,30.0,-100.00,NNW,330,2.0,5.0,86,0.00,,,0.00,,2013-04-07 09:43:00,
2013-04-07 04:53:00,35.0,30.0,-100.00,NW,310,2.0,4.0,86,0.00,,,0.00,,2013-04-07 09:53:00,
2013-04-07 05:03:00,34.0,30.0,-100.00,North,5,1.0,7.0,86,0.00,,,0.00,,2013-04-07 10:03:00,
2013-04-07 05:13:00,34.0,30.0,-100.00,NW,325,1.0,6.0,86,0.00,,,0.00,,2013-04-07 10:13:00,
2013-04-07 05:22:00,34.0,30.0,-100.00,North,0,2.0,4.0,85,0.00,,,0.00,,2013-04-07 10:22:00,
2013-04-07 05:33:00,35.0,30.0,-100.00,North,350,1.0,5.0,84,0.00,,,0.00,,2013-04-07 10:33:00,
2013-04-07 05:42:00,35.0,30.0,-100.00,NNW,330,2.0,6.0,83,0.00,,,0.00,,2013-04-07 10:42:00,
2013-04-07 05:52:00,35.0,28.0,-100.00,NNW,330,2.0,6.0,80,0.00,,,0.00,,2013-04-07 10:52:00,
2013-04-07 06:03:00,35.0,28.0,-100.00,NW,320,3.0,7.0,77,0.00,,,0.00,,2013-04-07 11:03:00,
2013-04-07 06:12:00,35.0,28.0,-100.00,North,5,3.0,7.0,75,0.00,,,0.00,,2013-04-07 11:12:00,
2013-04-07 06:22:00,35.0,28.0,-100.00,North,10,1.0,6.0,75,0.00,,,0.00,,2013-04-07 11:22:00,
2013-04-07 06:32:00,34.0,28.0,-100.00,North,0,2.0,6.0,76,0.00,,,0.00,,2013-04-07 11:32:00,
2013-04-07 06:42:00,35.0,28.0,-100.00,NNW,330,1.0,4.0,76,0.00,,,0.00,,2013-04-07 11:42:00,
2013-04-07 06:52:00,34.0,28.0,-100.00,NE,35,1.0,3.0,77,0.00,,,0.00,,2013-04-07 11:52:00,
2013-04-07 07:02:00,34.0,28.0,-100.00,NNW,335,2.0,4.0,77,0.00,,,0.00,,2013-04-07 12:02:00,
2013-04-07 07:12:00,34.0,28.0,-100.00,NW,320,1.0,4.0,77,0.00,,,0.00,,2013-04-07 12:12:00,
2013-04-07 07:22:00,34.0,28.0,-100.00,NNE,15,1.0,7.0,76,0.00,,,0.00,,2013-04-07 12:22:00,
2013-04-07 07:33:00,34.0,27.0,-100.00,West,270,1.0,6.0,75,0.00,,,0.00,,2013-04-07 12:33:00,
2013-04-07 07:42:00,34.0,27.0,-100.00,North,5,2.0,5.0,75,0.00,,,0.00,,2013-04-07 12:42:00,
2013-04-07 07:53:00,34.0,27.0,-100.00,NNW,345,1.0,6.0,74,0.00,,,0.00,,2013-04-07 12:53:00,
2013-04-07 08:03:00,35.0,27.0,-100.00,North,5,2.0,6.0,74,0.00,,,0.00,,2013-04-07 13:03:00,
2013-04-07 08:13:00,35.0,27.0,-100.00,North,0,2.0,6.0,74,0.00,,,0.00,,2013-04-07 13:13:00,
2013-04-07 08:22:00,35.0,27.0,-100.00,NNE,15,2.0,6.0,74,0.00,,,0.00,,2013-04-07 13:22:00,
2013-04-07 08:32:00,35.0,27.0,-100.00,North,0,3.0,9.0,73,0.00,,,0.00,,2013-04-07 13:32:00,
2013-04-07 08:42:00,35.0,27.0,-100.00,North,5,3.0,7.0,73,0.00,,,0.00,,2013-04-07 13:42:00,
2013-04-07 08:52:00,35.0,27.0,-100.00,North,355,1.0,6.0,74,0.00,,,0.00,,2013-04-07 13:52:00,
2013-04-07 09:02:00,35.0,28.0,-100.00,NNE,25,4.0,6.0,74,0.00,,,0.00,,2013-04-07 14:02:00,
2013-04-07 09:12:00,35.0,27.0,-100.00,NNE,30,4.0,7.0,73,0.00,,,0.00,,2013-04-07 14:12:00,
2013-04-07 09:23:00,35.0,27.0,-100.00,North,10,1.0,6.0,72,0.00,,,0.00,,2013-04-07 14:23:00,
2013-04-07 09:32:00,35.0,27.0,-100.00,NW,320,2.0,6.0,72,0.00,,,0.00,,2013-04-07 14:32:00,
2013-04-07 09:43:00,36.0,27.0,-100.00,North,5,2.0,5.0,72,0.00,,,0.00,,2013-04-07 14:43:00,
2013-04-07 09:53:00,35.0,27.0,-100.00,ENE,60,1.0,7.0,72,0.00,,,0.00,,2013-04-07 14:53:00,
2013-04-07 10:02:00,36.0,28.0,-100.00,North,350,2.0,4.0,72,0.00,,,0.00,,2013-04-07 15:02:00,
2013-04-07 10:12:00,35.0,27.0,-100.00,West,280,2.0,4.0,72,0.00,,,0.00,,2013-04-07 15:12:00,
2013-04-07 10:22:00,35.0,27.0,-100.00,WSW,250,2.0,4.0,72,0.00,,,0.00,,2013-04-07 15:22:00,
2013-04-07 10:33:00,36.0,27.0,-100.00,West,270,3.0,4.0,71,0.00,,,0.00,,2013-04-07 15:33:00,
2013-04-07 10:43:00,36.0,28.0,-100.00,WSW,250,2.0,4.0,72,0.00,,,0.00,,2013-04-07 15:43:00,
2013-04-07 10:53:00,36.0,27.0,-100.00,West,275,2.0,4.0,71,0.00,,,0.00,,2013-04-07 15:53:00,
2013-04-07 11:03:00,36.0,28.0,-100.00,SW,220,1.0,3.0,72,0.00,,,0.00,,2013-04-07 16:03:00,
2013-04-07 11:13:00,36.0,28.0,-100.00,SW,215,2.0,3.0,72,0.00,,,0.00,,2013-04-07 16:13:00,
2013-04-07 11:24:00,36.0,27.0,-100.00,WSW,255,2.0,4.0,71,0.00,,,0.00,,2013-04-07 16:24:00,
2013-04-07 11:33:00,37.0,28.0,-100.00,South,185,1.0,3.0,71,0.00,,,0.00,,2013-04-07 16:33:00,
2013-04-07 11:42:00,36.0,28.0,-100.00,SSW,205,3.0,6.0,71,0.00,,,0.00,,2013-04-07 16:42:00,
2013-04-07 11:53:00,37.0,28.0,-100.00,SSW,210,1.0,5.0,70,0.00,,,0.00,,2013-04-07 16:53:00,
2013-04-07 12:04:00,37.0,28.0,-100.00,SE,145,2.0,4.0,68,0.00,,,0.00,,2013-04-07 17:04:00,
2013-04-07 12:13:00,38.0,28.0,-100.00,NNE,30,1.0,4.0,69,0.00,,,0.00,,2013-04-07 17:13:00,
2013-04-07 12:23:00,37.0,28.0,-100.00,NNE,30,2.0,4.0,68,0.00,,,0.00,,2013-04-07 17:23:00,
2013-04-07 12:33:00,38.0,28.0,-100.00,SSE,150,4.0,6.0,67,0.00,,,0.00,,2013-04-07 17:33:00,
2013-04-07 12:42:00,39.0,28.0,-100.00,SSE,165,2.0,6.0,67,0.00,,,0.00,,2013-04-07 17:42:00,
2013-04-07 12:52:00,38.0,28.0,-100.00,East,80,3.0,7.0,68,0.00,,,0.00,,2013-04-07 17:52:00,
2013-04-07 13:02:00,38.0,28.0,-100.00,East,80,3.0,6.0,67,0.00,,,0.00,,2013-04-07 18:02:00,
2013-04-07 13:13:00,38.0,28.0,-100.00,ESE,115,3.0,5.0,66,0.00,,,0.00,,2013-04-07 18:13:00,
2013-04-07 13:32:00,40.0,28.0,-100.00,WSW,240,2.0,6.0,66,0.00,,,0.00,,2013-04-07 18:32:00,
2013-04-07 13:42:00,40.0,28.0,-100.00,SSW,200,2.0,6.0,63,0.00,,,0.00,,2013-04-07 18:42:00,
2013-04-07 13:52:00,40.0,28.0,-100.00,East,80,1.0,4.0,66,0.00,,,0.00,,2013-04-07 18:52:00,
2013-04-07 14:02:00,40.0,28.0,-100.00,SE,130,4.0,9.0,63,0.00,,,0.00,,2013-04-07 19:02:00,
2013-04-07 14:12:00,40.0,28.0,-100.00,East,80,3.0,7.0,64,0.00,,,0.00,,2013-04-07 19:12:00,
2013-04-07 14:22:00,42.0,30.0,-100.00,SSW,200,6.0,8.0,62,0.00,,,0.00,,2013-04-07 19:22:00,
2013-04-07 14:32:00,42.0,30.0,-100.00,SSW,210,5.0,9.0,63,0.00,,,0.00,,2013-04-07 19:32:00,
2013-04-07 14:42:00,42.0,30.0,-100.00,SSW,195,4.0,12.0,64,0.00,,,0.00,,2013-04-07 19:42:00,
2013-04-07 14:52:00,43.0,32.0,-100.00,South,190,8.0,11.0,62,0.00,,,0.00,,2013-04-07 19:52:00,
2013-04-07 15:02:00,44.0,30.0,-100.00,SW,225,4.0,11.0,60,0.00,,,0.00,,2013-04-07 20:02:00,
2013-04-07 15:13:00,44.0,30.0,-100.00,South,190,9.0,11.0,60,0.00,,,0.00,,2013-04-07 20:13:00,
2013-04-07 15:22:00,44.0,32.0,-100.00,South,185,7.0,11.0,61,0.00,,,0.00,,2013-04-07 20:22:00,
2013-04-07 15:32:00,44.0,32.0,-100.00,South,190,6.0,13.0,61,0.00,,,0.00,,2013-04-07 20:32:00,
2013-04-07 15:43:00,44.0,32.0,-100.00,SSE,160,2.0,11.0,62,0.00,,,0.00,,2013-04-07 20:43:00,
2013-04-07 15:52:00,44.0,30.0,-100.00,South,180,7.0,12.0,59,0.00,,,0.00,,2013-04-07 20:52:00,
2013-04-07 16:03:00,44.0,32.0,-100.00,South,180,9.0,13.0,61,0.00,,,0.00,,2013-04-07 21:03:00,
2013-04-07 16:13:00,45.0,32.0,-100.00,South,185,7.0,11.0,60,0.00,,,0.00,,2013-04-07 21:13:00,
2013-04-07 16:22:00,45.0,32.0,-100.00,South,175,4.0,12.0,58,0.00,,,0.00,,2013-04-07 21:22:00,
2013-04-07 16:33:00,45.0,32.0,-100.00,South,180,4.0,12.0,60,0.00,,,0.00,,2013-04-07 21:33:00,
2013-04-07 16:43:00,45.0,32.0,-100.00,SSE,165,4.0,11.0,59,0.00,,,0.00,,2013-04-07 21:43:00,
2013-04-07 16:53:00,45.0,32.0,-100.00,South,180,9.0,12.0,60,0.00,,,0.00,,2013-04-07 21:53:00,
2013-04-07 17:03:00,46.0,32.0,-100.00,SE,140,4.0,11.0,57,0.00,,,0.00,,2013-04-07 22:03:00,
2013-04-07 17:13:00,46.0,32.0,-100.00,SE,130,6.0,10.0,57,0.00,,,0.00,,2013-04-07 22:13:00,
2013-04-07 17:23:00,45.0,32.0,-100.00,SE,130,4.0,9.0,59,0.00,,,0.00,,2013-04-07 22:23:00,
2013-04-07 17:33:00,45.0,32.0,-100.00,SSE,150,6.0,10.0,59,0.00,,,0.00,,2013-04-07 22:33:00,
2013-04-07 17:43:00,45.0,32.0,-100.00,South,170,7.0,9.0,60,0.00,,,0.00,,2013-04-07 22:43:00,
2013-04-07 17:52:00,45.0,34.0,-100.00,South,185,9.0,10.0,60,0.00,,,0.00,,2013-04-07 22:52:00,
2013-04-07 18:03:00,46.0,34.0,-100.00,South,175,8.0,12.0,61,0.00,,,0.00,,2013-04-07 23:03:00,
2013-04-07 18:12:00,46.0,34.0,-100.00,SSE,155,7.0,11.0,62,0.00,,,0.00,,2013-04-07 23:12:00,
2013-04-07 18:22:00,46.0,34.0,-100.00,South,180,9.0,12.0,63,0.00,,,0.00,,2013-04-07 23:22:00,
2013-04-07 18:32:00,46.0,36.0,-100.00,SSW,200,9.0,12.0,63,0.00,,,0.00,,2013-04-07 23:32:00,
2013-04-07 18:42:00,46.0,36.0,-100.00,South,185,7.0,12.0,64,0.00,,,0.00,,2013-04-07 23:42:00,
2013-04-07 18:52:00,46.0,36.0,-100.00,SSW,195,6.0,9.0,65,0.00,,,0.00,,2013-04-07 23:52:00,
2013-04-07 19:02:00,46.0,36.0,-100.00,South,190,6.0,10.0,65,0.00,,,0.00,,2013-04-08 00:02:00,
2013-04-07 19:12:00,45.0,34.0,-100.00,South,185,6.0,9.0,65,0.00,,,0.00,,2013-04-08 00:12:00,
2013-04-07 19:22:00,45.0,34.0,-100.00,South,190,6.0,7.0,65,0.00,,,0.00,,2013-04-08 00:22:00,
2013-04-07 19:32:00,45.0,34.0,-100.00,South,175,4.0,7.0,64,0.00,,,0.00,,2013-04-08 00:32:00,
2013-04-07 19:42:00,45.0,34.0,-100.00,South,180,6.0,8.0,65,0.00,,,0.00,,2013-04-08 00:42:00,
2013-04-07 19:52:00,44.0,34.0,-100.00,SSW,195,5.0,8.0,68,0.00,,,0.00,,2013-04-08 00:52:00,
2013-04-07 20:02:00,44.0,36.0,-100.00,South,185,5.0,6.0,69,0.00,,,0.00,,2013-04-08 01:02:00,
2013-04-07 20:12:00,44.0,34.0,-100.00,South,180,4.0,6.0,69,0.00,,,0.00,,2013-04-08 01:12:00,
2013-04-07 20:22:00,44.0,34.0,-100.00,South,180,3.0,5.0,70,0.00,,,0.00,,2013-04-08 01:22:00,
2013-04-07 20:33:00,44.0,34.0,-100.00,SE,140,2.0,4.0,68,0.00,,,0.00,,2013-04-08 01:33:00,
2013-04-07 20:53:00,44.0,34.0,-100.00,SSE,150,1.0,2.0,70,0.00,,,0.00,,2013-04-08 01:53:00,
2013-04-07 21:02:00,43.0,36.0,-100.00,East,100,1.0,2.0,74,0.00,,,0.00,,2013-04-08 02:02:00,
2013-04-07 21:12:00,42.0,36.0,-100.00,East,100,1.0,2.0,76,0.00,,,0.00,,2013-04-08 02:12:00,
2013-04-07 21:22:00,41.0,36.0,-100.00,ENE,70,1.0,3.0,82,0.00,,,0.00,,2013-04-08 02:22:00,
2013-04-07 21:33:00,41.0,37.0,-100.00,ENE,70,1.0,2.0,85,0.00,,,0.00,,2013-04-08 02:33:00,
2013-04-07 21:45:00,41.0,37.0,-100.00,East,80,2.0,3.0,86,0.00,,,0.00,,2013-04-08 02:45:00,
2013-04-07 21:52:00,41.0,37.0,-100.00,ENE,70,2.0,4.0,86,0.00,,,0.00,,2013-04-08 02:52:00,
2013-04-07 22:07:00,41.0,37.0,-100.00,ENE,75,2.0,7.0,87,0.00,,,0.00,,2013-04-08 03:07:00,
2013-04-07 22:14:00,40.0,37.0,-100.00,SE,125,0.0,3.0,87,0.00,,,0.00,,2013-04-08 03:14:00,
2013-04-07 22:23:00,40.0,37.0,-100.00,ENE,75,2.0,4.0,89,0.00,,,0.00,,2013-04-08 03:23:00,
2013-04-07 22:33:00,40.0,37.0,-100.00,East,80,1.0,3.0,90,0.00,,,0.00,,2013-04-08 03:33:00,
2013-04-07 22:47:00,40.0,37.0,-100.00,ENE,70,0.0,2.0,90,0.00,,,0.00,,2013-04-08 03:47:00,
2013-04-07 22:53:00,39.0,37.0,-100.00,East,85,1.0,3.0,91,0.00,,,0.00,,2013-04-08 03:53:00,
2013-04-07 23:03:00,39.0,37.0,-100.00,ESE,110,1.0,7.0,92,0.00,,,0.00,,2013-04-08 04:03:00,
2013-04-07 23:12:00,39.0,37.0,-100.00,ESE,110,1.0,7.0,92,0.00,,,0.00,,2013-04-08 04:12:00,
2013-04-07 23:23:00,38.0,37.0,-100.00,ENE,65,4.0,7.0,93,0.00,,,0.00,,2013-04-08 04:23:00,
2013-04-07 23:33:00,38.0,37.0,-100.00,ENE,75,3.0,7.0,93,0.00,,,0.00,,2013-04-08 04:33:00,
2013-04-07 23:43:00,38.0,37.0,-100.00,East,80,4.0,9.0,93,0.00,,,0.00,,2013-04-08 04:43:00,
2013-04-07 23:52:00,38.0,37.0,-100.00,East,80,5.0,9.0,94,0.00,,,0.00,,2013-04-08 04:52:00,